sat.trackr.live / text

‹ back to catalog

EUTELSAT 33F

NORAD 29270 · 2006-032A

PAYLOAD ACTIVE UNKNOWN

§ Identity

Operator
Country
EUTE
Launch date
2006-08-04
Launch site
TYMSC
Launch vehicle
Mass (kg)
RCS (m²)
31.62

Purposes: comms

External: N2YO · Heavens-Above · Gunter

§ Orbital elements

Epoch: 2026-05-25T03:54:01.359936Z

Period
1,436.05 min
Inclination
1.6043°
Eccentricity
0.0003600
Mean motion
1.00274770 rev/d
Perigee alt
35,770.6 km
Apogee alt
35,800.9 km
Semi-major
42,163.9 km
B*
0.0000e+0
RAAN
82.4872°
Arg perigee
338.0474°
Mean anomaly
273.8338°
Rev number
4,707

§ Raw data

EUTELSAT 33F1 29270U 06032A   26145.16251574  .00000154  00000+0  00000+0 0  99982 29270   1.6043  82.4872 0003600 338.0474 273.8338  1.00274770 47075

JSON: /api/v1/satellites/29270 · /tle

For live sub-satellite position, see the globe view (requires WebGL).

§ Visibility from observer

Set your observer location to see the next 7 days of passes ≥ 10°. The values pass through the URL so the page stays shareable.

No JS? Fill the form by hand. The geolocation button needs JavaScript.